Wind_Speed
47 46 45 45 44 45 45 45 44 43 43 44 44 46 47 49 51 53 54 54 53 53 54 56 58 58 58 58 58 58 57 56 55 55 56 57 57 56 55 53 51 49 48 47 47 47 48 49 50 51 52 52 53 53 53 54 54 55 55 56 56 56 56 56 56 57 57 57 57 58 58 58 59 59 59 59 59 59 59 60 60 60 60 60 60 60
44 43 42 42 43 45 47 44 41 38 37 38 40 43 46 49 50 51 52 51 52 52 53 54 55 56 57 58 59 61 62 62 62 61 60 60 59 58 57 55 52 50 48 47 47 47 47 48 49 50 51 52 52 53 54 54 54 55 55 55 55 55 56 56 56 56 56 57 57 57 58 58 59 59 59 59 59 59 59 59 60 60 60 60 60 61
41 41 41 42 45 48 48 42 36 33 33 35 39 42 44 45 46 46 46 47 47 48 48 48 49 51 54 56 58 61 63 64 63 62 61 60 59 57 56 53 51 50 48 48 47 47 47 47 48 49 50 51 52 52 53 53 53 53 54 54 54 55 55 55 56 56 56 57 57 58 58 58 58 58 59 59 59 59 59 59 60 60 60 61 61 61
38 39 40 43 46 48 45 38 33 31 33 36 40 43 44 43 42 42 42 43 44 45 45 45 46 48 51 54 57 60 61 62 62 61 60 58 56 54 52 51 49 49 48 47 47 47 47 48 48 49 50 50 51 51 52 52 52 52 53 53 54 54 55 55 55 56 56 57 57 57 57 58 58 58 58 58 59 59 59 60 60 60 61 61 62 62
35 36 38 41 44 44 40 36 33 33 35 39 43 45 47 46 45 44 44 46 47 48 48 49 49 51 53 56 58 59 60 60 60 59 57 55 53 50 49 48 48 47 47 47 48 48 48 49 49 50 50 50 51 51 51 51 52 52 53 53 53 54 54 55 55 55 56 56 56 57 57 57 58 58 58 59 59 59 60 60 61 61 62 62 63 63
31 32 35 38 40 39 36 33 32 34 37 41 45 47 50 51 51 51 51 52 53 53 54 54 54 55 56 57 58 58 58 57 56 55 54 52 50 48 47 47 47 47 47 48 48 49 49 49 50 50 50 51 51 51 51 52 52 52 53 53 53 54 54 54 55 55 56 56 57 57 57 58 58 59 59 59 60 60 61 61 62 62 63 63 64 64
27 28 31 33 34 33 30 29 30 33 37 41 44 47 50 52 53 54 55 56 56 57 57 58 58 58 57 57 56 55 54 52 51 50 49 48 48 47 47 47 47 47 47 48 48 49 49 49 50 50 51 51 51 51 52 52 52 52 52 53 53 54 54 55 55 56 56 57 57 58 58 59 59 60 60 60 61 61 62 62 63 63 64 64 65 65
24 25 27 29 29 28 28 29 31 33 35 38 42 45 48 50 52 53 55 56 57 57 57 57 57 56 55 53 52 51 50 48 48 47 47 46 47 47 47 47 47 47 47 48 48 48 49 49 50 50 51 51 51 51 52 52 52 52 53 53 54 54 55 56 56 57 57 58 58 59 59 60 60 61 61 62 62 62 63 63 64 64 65 65 66 66
22 24 25 27 27 28 29 30 32 33 34 36 38 41 44 46 48 50 51 52 52 53 53 52 51 50 49 49 48 47 47 46 46 45 45 45 46 46 47 47 47 47 47 48 48 49 49 49 50 50 50 51 51 51 52 52 53 53 54 54 55 55 56 57 57 58 58 59 59 60 60 61 61 62 62 62 63 63 64 64 65 65 65 66 66 67
20 22 24 26 27 28 29 30 31 32 33 34 35 37 39 40 42 43 44 45 45 46 46 46 45 45 45 45 45 45 45 45 45 45 45 45 45 46 46 46 47 47 47 48 48 49 49 49 50 50 51 51 52 52 53 53 54 54 55 55 56 56 57 57 58 58 59 59 60 60 61 61 62 62 63 63 63 64 64 65 65 66 66 67 67 68
16 20 22 24 26 28 29 30 30 31 31 32 33 35 36 37 37 38 39 39 40 41 41 42 42 42 43 43 43 43 44 44 44 44 45 45 45 45 46 46 46 47 47 48 48 49 49 50 51 51 52 52 53 53 54 54 54 55 55 56 56 57 57 58 58 59 59 60 60 61 61 61 62 62 63 63 64 64 65 65 66 66 67 67 68 68
17 20 22 24 26 28 29 29 29 30 30 31 32 33 34 35 36 36 36 37 38 38 39 40 41 41 41 42 42 42 43 43 44 44 44 45 45 45 46 46 47 47 47 48 49 49 50 51 51 52 52 53 53 53 54 54 55 55 56 56 56 57 57 58 58 59 59 60 60 61 61 61 62 62 63 64 64 64 65 65 66 66 67 67 68 68
20 22 23 25 26 27 27 28 28 29 30 30 31 31 32 33 34 35 36 36 37 38 39 39 40 40 41 41 42 42 42 43 43 44 44 44 45 45 46 47 47 48 48 49 50 50 51 51 52 52 52 53 53 54 54 54 55 55 56 56 57 57 58 58 59 59 59 60 60 61 61 62 62 63 63 64 64 65 65 66 66 66 67 67 68 68
21 22 23 24 25 25 26 26 27 28 28 29 30 31 32 33 34 34 35 36 37 37 38 39 40 40 41 41 41 41 42 42 43 44 44 45 45 46 47 48 48 49 49 50 50 51 51 52 52 53 53 53 54 54 54 55 55 56 56 57 57 57 58 58 59 59 60 60 60 61 61 62 62 63 63 64 64 65 65 65 66 66 67 67 67 68
22 22 23 23 24 24 24 25 26 26 27 28 29 30 31 32 33 34 35 36 36 37 38 39 39 40 40 40 40 41 42 43 44 45 45 46 46 47 48 48 49 50 50 50 51 51 52 52 53 53 53 54 54 55 55 55 56 56 57 57 57 58 58 59 59 59 60 60 61 61 61 62 62 63 63 63 64 64 64 65 65 65 66 66 66 66
22 22 22 22 22 23 24 24 25 26 27 28 29 30 31 32 33 34 35 35 36 37 37 38 38 39 40 40 41 41 42 44 45 46 46 46 47 48 48 49 50 50 50 51 51 52 52 53 53 54 54 54 55 55 56 56 56 57 57 58 58 58 59 59 59 60 60 60 61 61 61 62 62 62 62 63 63 63 63 64 64 64 64 64 65 65
22 22 23 23 23 24 25 26 26 27 28 29 30 31 32 32 33 34 34 35 36 36 37 38 38 39 40 41 42 43 44 45 46 46 46 47 48 48 49 50 50 51 51 51 52 52 53 53 54 54 55 55 55 56 56 57 57 57 58 58 59 59 59 59 60 60 60 60 60 61 61 61 61 61 61 61 62 62 62 62 62 62 62 63 63 63
24 25 25 26 26 26 27 27 28 29 30 30 31 31 32 33 33 34 35 36 36 37 38 39 40 40 41 42 43 44 45 46 46 47 47 47 48 49 50 50 51 51 51 52 52 53 53 54 54 55 55 56 56 57 57 57 58 58 58 59 59 59 59 60 60 60 60 59 59 59 59 59 59 59 60 60 60 60 60 60 60 61 61 61 61 61
26 26 26 27 27 27 28 28 29 29 30 30 31 32 32 33 34 35 36 37 38 38 39 40 41 41 42 43 43 44 45 46 47 47 47 48 48 49 50 51 51 52 52 52 53 53 54 55 55 56 56 57 57 57 58 58 58 59 59 59 59 59 59 59 59 58 58 58 58 58 58 58 58 58 58 58 58 58 59 59 59 59 59 59 59 59
26 26 26 27 27 27 28 29 29 30 31 32 32 33 34 35 36 36 37 38 39 40 40 41 42 42 43 43 44 45 46 46 47 48 48 48 49 50 50 51 51 52 53 53 54 54 55 56 56 57 57 58 58 58 58 58 59 59 59 59 58 58 58 57 57 57 56 56 56 56 56 56 56 56 56 57 57 57 57 58 58 58 58 58 58 57
26 27 27 28 28 28 29 30 31 31 32 33 34 34 35 36 37 38 39 39 40 41 42 42 43 43 44 44 45 45 46 47 47 48 49 49 49 50 51 51 52 53 53 54 55 55 56 56 57 57 58 58 58 58 58 58 58 58 58 57 57 56 56 56 55 55 55 54 54 55 55 55 55 55 55 56 56 56 57 57 57 57 57 56 55 55
27 27 28 29 29 30 30 31 32 33 34 34 35 36 37 38 38 39 40 41 41 42 42 43 44 44 44 45 45 46 47 47 48 49 49 50 50 50 51 52 52 53 54 55 55 56 57 57 58 58 58 58 58 58 58 58 57 57 56 56 55 55 54 54 53 53 53 53 53 53 53 54 54 54 55 55 56 56 56 56 56 55 54 54 53 52
28 29 29 30 31 31 32 33 34 35 36 36 37 38 39 39 40 41 41 42 42 43 43 44 45 45 45 45 46 46 47 48 48 49 50 50 50 51 51 52 53 54 54 55 56 57 57 58 58 58 58 58 58 58 57 57 56 55 55 54 53 53 52 52 52 52 52 52 52 52 53 53 54 54 55 55 55 55 55 54 54 53 52 50 49 48
30 30 31 32 32 33 34 35 36 36 37 38 39 40 40 41 41 42 42 43 43 44 44 45 45 45 45 46 46 47 47 48 49 49 50 51 51 52 52 52 53 54 55 56 57 57 58 58 58 58 58 58 57 56 56 55 54 53 53 52 51 51 51 50 50 51 51 51 52 52 53 53 54 55 55 55 55 54 53 52 51 50 48 47 45 44
31 32 33 34 34 35 36 37 37 38 39 40 40 41 42 42 43 43 43 44 44 45 45 45 45 45 46 46 47 47 48 48 49 50 50 51 52 52 52 53 53 54 56 56 57 57 57 58 58 57 57 56 55 55 54 53 52 51 51 50 50 50 49 50 50 50 51 51 52 52 53 54 55 55 55 55 54 53 51 49 48 46 44 43 41 40
33 34 35 35 36 37 38 38 39 40 40 41 42 42 43 43 44 44 44 45 45 45 46 46 46 46 46 47 47 47 48 48 49 49 50 51 52 53 53 53 54 54 55 56 56 56 56 56 56 56 55 54 53 52 51 51 50 50 49 49 49 49 49 49 50 50 51 52 52 53 54 54 55 55 54 53 52 50 48 46 44 43 41 39 38 37
35 36 37 37 38 39 39 40 41 41 42 42 43 43 44 44 44 44 44 45 45 46 46 46 46 46 47 47 47 47 47 48 48 49 50 51 52 53 53 53 54 54 54 55 55 55 54 54 54 53 53 52 51 50 50 49 49 49 49 49 49 49 49 50 50 51 51 52 53 54 54 55 55 54 53 52 50 47 45 43 41 40 38 37 36 36
37 37 38 39 40 40 41 41 42 42 43 43 44 44 44 44 44 44 44 45 45 45 45 45 46 46 46 46 47 47 47 47 48 49 50 51 52 52 53 53 53 53 53 53 53 52 51 51 51 50 50 49 49 49 48 48 48 48 49 49 49 49 50 50 51 51 52 53 53 54 55 55 55 53 52 50 47 45 43 41 39 38 36 36 36 36
38 38 39 40 41 41 42 42 42 43 43 43 44 44 44 44 44 44 44 45 45 45 45 45 46 46 46 47 47 47 47 48 48 49 50 51 51 52 52 53 52 52 51 51 50 50 49 48 48 48 48 48 48 48 48 48 49 49 49 50 50 50 51 51 51 52 53 53 54 55 55 55 54 52 50 47 45 42 40 39 37 36 36 36 36 36
39 39 40 41 41 42 42 43 43 43 43 43 43 43 44 44 44 44 44 44 44 44 45 45 46 46 47 47 48 48 48 48 49 50 50 51 51 52 52 52 52 51 50 49 48 47 47 46 46 46 46 47 47 48 48 49 49 50 50 50 51 51 51 52 52 53 53 54 55 55 55 54 53 50 48 45 43 41 39 38 37 36 36 36 37 37
40 40 41 41 42 42 43 43 43 43 43 43 43 43 43 43 43 44 44 44 44 45 45 46 46 47 47 48 49 49 49 49 50 50 51 51 51 52 52 51 51 51 50 48 46 45 44 44 45 45 45 46 47 48 49 49 50 50 51 51 52 52 52 53 53 53 54 55 55 55 55 53 51 49 46 43 41 39 38 37 36 36 36 37 37 38
41 42 42 43 43 43 43 43 44 44 44 44 44 44 44 44 44 44 44 44 45 45 46 46 47 48 48 49 49 50 51 51 51 51 52 52 52 52 52 51 51 50 50 48 46 44 43 43 43 44 44 45 47 48 49 50 51 51 51 52 52 53 53 53 54 54 55 55 55 55 54 52 50 47 44 41 39 38 37 37 37 37 37 37 38 38
42 43 43 44 44 44 44 44 44 44 44 44 44 44 44 44 44 44 45 45 45 46 46 47 48 48 49 50 50 51 52 52 52 52 52 52 52 52 52 51 50 50 49 48 47 45 44 43 43 43 44 45 46 48 49 50 51 51 52 52 53 53 53 54 54 55 55 55 55 54 53 51 48 45 42 40 39 38 37 37 37 37 38 38 38 38
44 44 44 45 45 45 45 45 45 45 45 45 45 45 45 45 45 45 45 45 46 46 47 48 48 49 50 51 51 52 52 53 53 53 53 52 52 52 51 50 50 49 48 48 47 46 45 44 44 44 44 45 46 47 48 50 51 51 52 52 52 53 54 54 54 55 55 55 54 53 51 49 46 43 41 39 38 38 37 37 38 38 38 38 38 38
45 45 45 46 46 46 46 46 45 45 45 45 45 45 45 45 45 46 46 46 46 47 47 48 49 50 50 51 52 52 53 53 53 53 53 53 52 51 51 50 49 49 48 47 47 46 46 45 45 44 44 45 45 47 48 49 50 51 51 52 52 53 53 54 54 55 55 54 53 51 49 47 44 42 40 39 38 38 37 37 38 38 39 39 39 38
45 46 46 46 46 46 46 46 46 46 46 46 46 46 46 46 46 46 46 47 47 47 48 49 49 50 51 52 52 53 53 54 54 54 53 53 52 51 50 50 49 49 48 47 47 46 46 46 45 45 45 45 45 46 47 48 49 50 51 51 52 52 53 54 54 54 54 53 51 49 47 45 43 41 39 38 38 37 37 37 38 38 39 39 39 38
46 46 46 47 47 47 47 46 46 46 46 46 46 46 46 46 46 46 47 47 47 48 49 49 50 51 52 52 53 53 54 54 54 54 53 53 52 51 50 50 49 48 48 47 47 47 46 46 46 45 45 45 45 46 47 47 48 49 50 50 51 52 53 54 54 53 52 51 49 47 45 43 41 40 39 38 37 37 37 37 38 38 39 39 39 38
46 47 47 47 47 47 47 47 47 47 47 47 46 47 46 46 47 47 47 48 48 49 49 50 51 52 52 53 53 54 54 54 54 54 53 52 52 51 50 49 49 48 48 48 47 47 46 46 46 46 45 45 45 46 46 47 48 48 49 50 50 51 53 53 53 52 51 49 46 44 42 41 39 38 38 37 37 37 37 37 38 38 39 39 38 37
47 47 47 47 47 47 47 47 47 47 47 47 47 47 47 47 47 48 48 48 49 49 50 51 52 52 53 53 54 54 54 54 54 53 53 52 51 50 50 49 49 48 48 48 47 47 46 46 46 46 45 45 45 46 46 47 47 48 48 49 50 51 52 52 52 51 49 47 44 42 40 39 38 37 37 36 36 36 36 37 37 38 39 38 38 37
47 47 47 48 48 48 48 48 48 48 48 48 47 48 48 48 48 48 49 49 50 50 51 52 52 53 53 54 54 54 54 54 54 53 53 52 51 50 49 49 48 48 48 47 47 46 46 46 46 45 45 45 45 45 46 46 47 48 48 49 49 50 51 51 51 49 47 44 42 40 39 38 37 36 36 35 35 35 36 36 37 38 38 38 37 36
47 48 48 48 48 48 48 48 48 48 48 48 48 48 48 48 49 49 49 50 50 51 52 52 53 54 54 55 55 55 54 54 54 53 52 51 51 50 49 48 48 48 47 47 46 46 46 45 45 45 45 45 45 45 45 46 47 47 48 48 49 50 50 50 49 47 44 42 40 39 37 36 36 35 35 35 35 35 36 36 37 37 38 37 37 36
48 48 48 48 48 48 49 49 49 49 49 49 49 49 49 49 49 50 50 51 51 52 52 53 54 54 55 55 55 55 55 54 53 53 52 51 50 50 49 48 47 47 46 46 46 45 45 45 45 44 44 44 44 44 45 46 46 47 48 49 49 49 49 48 47 44 42 40 38 37 36 36 35 35 34 34 34 35 35 36 36 37 37 37 36 35
48 48 48 49 49 49 49 49 49 49 49 49 49 49 49 50 50 51 51 52 52 53 53 53 54 54 55 55 55 55 55 54 53 52 52 51 50 49 48 47 47 46 46 45 45 45 44 44 44 44 44 44 44 44 45 45 46 47 48 49 49 49 48 46 44 42 40 38 37 36 36 35 34 34 34 34 34 34 35 35 36 36 36 36 36 35
49 49 49 49 49 49 49 49 49 49 49 50 50 50 50 50 51 51 52 52 53 53 54 54 55 55 55 55 55 55 55 54 53 52 51 50 49 48 48 47 46 45 45 44 44 44 44 43 43 44 44 44 44 44 45 45 46 47 48 49 49 48 46 44 42 40 38 37 36 35 35 34 34 33 33 33 33 34 34 35 35 36 36 36 35 34
49 49 50 49 50 50 50 50 50 50 50 50 50 50 51 51 52 52 53 53 54 54 55 55 56 56 56 56 55 55 54 54 53 52 51 50 49 48 47 46 45 45 44 44 43 43 43 43 43 43 44 44 44 45 45 45 46 47 48 48 48 47 45 42 40 38 36 35 34 34 34 34 33 33 33 32 33 33 33 34 34 35 35 35 34 33
50 50 50 50 50 50 50 50 50 50 51 51 51 51 52 52 52 53 53 54 55 55 56 56 56 56 56 56 55 54 53 53 52 51 50 49 48 47 46 45 45 44 44 43 43 43 42 43 43 43 43 44 44 44 45 45 46 47 47 48 47 45 43 40 38 36 34 33 33 33 33 33 33 32 32 32 32 32 32 33 33 34 34 34 33 32
50 50 50 50 50 50 50 50 51 51 51 51 52 52 52 53 53 54 55 55 56 56 57 57 57 56 56 55 54 53 52 51 50 50 49 48 47 46 45 45 44 44 43 43 43 42 42 42 43 43 43 44 44 44 45 46 46 47 47 47 45 43 40 38 36 34 33 32 32 32 32 32 32 32 31 31 30 30 31 31 32 33 33 33 32 31
51 51 51 51 51 51 51 51 51 51 52 52 52 53 53 54 54 55 56 56 57 57 57 57 57 57 56 55 54 53 51 50 49 48 48 47 46 46 45 44 44 44 43 43 42 42 42 43 43 43 44 44 44 44 45 46 46 47 47 46 43 41 38 36 34 33 32 32 32 32 32 32 32 31 30 30 29 29 29 30 31 31 32 32 31 30
51 51 51 51 51 51 51 51 52 52 52 53 53 54 54 55 56 56 57 58 58 58 58 58 57 56 56 54 53 52 50 49 48 47 46 46 45 45 45 44 44 44 43 43 43 42 42 43 43 43 44 44 44 45 45 46 46 47 46 44 41 39 36 34 32 32 32 32 32 32 32 32 31 30 29 28 27 27 27 28 29 30 31 31 31 30
52 51 51 51 51 51 52 52 52 53 53 54 54 55 56 57 57 58 58 59 59 59 58 58 57 56 55 54 52 51 49 48 47 46 45 45 45 44 44 44 44 44 43 43 43 42 42 42 43 43 44 44 45 45 45 46 46 45 44 42 39 36 34 32 31 31 31 31 31 31 31 31 30 29 28 27 26 25 25 26 28 29 31 31 31 30
52 52 51 51 52 52 52 52 53 53 54 55 56 57 57 58 59 60 60 60 60 59 58 57 56 55 54 52 51 49 48 47 45 45 44 44 44 44 44 44 43 43 43 43 43 42 42 42 42 43 43 44 45 45 46 46 45 44 42 39 37 35 33 32 31 31 31 31 31 31 30 30 29 28 27 26 25 24 24 25 26 28 30 31 31 31
Wind_Direction
265 265 263 262 260 257 254 253 254 256 258 262 266 269 270 269 268 267 266 265 264 263 263 264 264 265 266 268 268 269 270 273 276 278 281 283 286 288 289 289 288 286 284 282 280 280 279 279 279 280 279 279 279 278 278 277 277 276 276 276 277 277 277 277 277 277 276 276 276 276 276 276 276 276 275 275 275 275 275 275 274 274 274 273 273 272
263 263 261 259 256 253 251 254 257 259 260 263 267 269 269 268 266 265 264 263 263 262 263 263 262 262 263 265 268 270 273 276 279 282 284 285 287 288 289 289 289 287 286 284 283 281 280 279 279 278 278 278 277 277 277 276 276 276 276 276 276 276 276 276 276 276 276 276 276 276 276 276 276 275 275 275 275 275 275 274 274 274 273 273 273 272
261 260 259 256 253 251 253 258 261 263 264 266 267 266 264 262 260 259 259 260 262 264 265 266 264 263 263 266 270 274 276 279 282 285 286 287 288 289 289 289 288 288 287 286 284 283 281 280 278 277 277 276 276 276 276 276 276 276 276 276 277 277 277 277 277 277 277 277 276 276 276 276 275 275 275 275 275 275 274 274 274 273 273 273 272 272
260 259 257 255 253 253 257 261 263 262 262 264 264 264 261 259 257 257 259 263 267 271 273 273 271 269 269 271 275 277 279 282 284 286 288 289 289 289 288 288 288 287 287 286 284 283 282 280 279 278 277 277 276 276 277 277 277 277 277 278 278 278 278 277 277 277 277 277 276 276 276 276 275 275 275 275 275 274 274 274 273 273 273 272 272 272
259 259 257 255 255 258 263 265 262 257 256 259 261 262 262 263 264 266 269 272 276 279 280 280 279 278 277 278 280 281 282 283 284 286 288 289 289 289 288 288 287 286 286 285 284 283 282 281 281 280 280 280 280 280 280 280 279 279 279 279 279 278 278 278 278 277 277 277 277 276 276 276 276 275 275 275 275 275 274 274 274 274 273 273 273 272
259 259 257 258 261 266 271 268 260 253 252 255 258 260 262 265 268 272 275 278 280 281 282 282 282 282 282 282 282 283 283 284 284 286 287 288 288 288 288 287 286 286 285 284 284 283 283 283 283 283 283 282 282 282 281 281 281 280 280 279 279 279 278 278 278 278 277 277 277 277 277 277 277 276 276 276 276 276 276 275 275 275 274 274 274 273
259 258 259 263 270 274 273 268 260 255 253 254 256 258 261 264 267 271 274 277 279 280 281 281 281 281 282 282 283 283 284 285 285 286 286 287 287 287 287 286 286 285 285 285 285 285 285 284 284 284 283 283 283 282 282 281 281 280 280 280 280 279 279 279 279 278 278 278 278 278 278 278 278 278 278 278 277 277 277 276 276 276 275 275 275 274
259 259 261 267 271 271 269 267 265 263 261 259 258 259 261 263 266 269 272 274 276 277 278 279 279 280 281 281 282 283 284 285 286 286 286 286 286 286 286 286 286 286 286 286 286 285 285 284 284 283 283 282 282 282 281 281 281 281 281 280 280 280 280 280 280 280 280 280 280 280 280 280 279 279 279 279 278 278 278 277 277 276 276 276 275 275
257 257 258 260 261 263 265 268 270 271 270 268 265 264 264 265 267 269 271 273 274 276 277 278 279 280 281 282 283 284 284 285 285 286 286 286 286 287 287 287 287 287 286 286 285 285 284 284 283 283 283 282 282 282 282 282 282 282 282 282 282 282 281 281 281 281 281 281 281 281 281 281 281 280 280 280 279 279 279 278 278 278 277 277 277 276
250 249 249 251 255 261 267 272 275 276 276 275 273 272 271 271 272 273 274 275 276 277 278 280 281 281 282 283 283 284 285 286 286 287 287 287 287 287 287 286 286 286 286 285 285 285 284 284 283 283 283 283 283 283 283 283 283 283 283 283 283 283 283 283 283 283 283 282 282 282 282 282 282 281 281 281 281 280 280 280 279 279 279 279 278 278
252 250 251 254 260 267 273 277 279 280 280 279 278 277 277 277 278 278 279 279 280 281 281 282 283 283 284 285 285 286 287 288 288 288 288 287 287 287 287 286 286 286 285 285 284 284 284 284 284 283 284 284 284 284 284 284 284 284 284 284 284 284 284 284 284 284 283 283 283 283 283 283 283 282 282 282 282 282 281 281 281 281 280 280 280 279
274 268 266 268 271 275 278 280 281 281 281 281 281 281 281 281 281 281 281 282 282 283 283 284 284 285 287 288 288 289 289 289 289 288 287 287 287 287 287 286 286 286 285 285 285 284 284 284 284 285 285 285 285 285 285 285 285 285 285 285 285 285 285 285 284 284 284 284 284 284 284 284 283 283 283 283 283 282 282 282 282 281 281 281 280 280
284 279 277 277 277 279 280 282 282 283 283 283 283 283 283 283 283 283 284 284 285 286 287 287 288 288 289 289 290 290 289 289 288 287 287 287 287 287 287 286 286 286 286 286 286 286 286 286 286 286 286 286 287 287 287 286 286 286 286 286 286 286 285 285 285 285 285 285 285 285 284 284 284 284 284 283 283 283 283 282 282 282 281 281 280 280
286 282 280 279 279 280 281 282 282 283 283 283 284 284 284 285 285 286 287 288 289 289 289 290 290 290 290 290 290 290 289 288 287 287 287 287 287 287 287 287 287 287 287 287 287 288 288 288 288 288 288 288 288 288 288 288 287 287 287 287 287 286 286 286 286 286 286 285 285 285 285 285 285 284 284 284 284 283 283 283 282 282 281 281 280 280
290 286 283 282 281 281 281 281 282 282 283 284 285 286 287 288 289 290 291 291 291 291 291 290 290 290 290 290 290 289 288 287 287 287 288 288 288 288 288 288 288 289 289 289 289 289 289 289 289 289 289 289 289 289 289 288 288 288 288 287 287 287 287 287 287 286 286 286 286 286 285 285 285 285 284 284 284 284 283 283 282 282 282 281 281 280
298 294 291 289 287 286 287 287 287 288 289 290 291 292 293 293 293 293 293 292 292 291 291 290 290 290 289 289 289 289 288 288 288 288 289 289 289 289 290 290 290 290 290 291 291 291 291 290 290 290 290 290 290 289 289 289 289 288 288 288 288 288 287 287 287 287 287 287 286 286 286 286 285 285 285 285 284 284 284 283 283 282 282 281 281 280
304 302 300 299 298 298 298 299 299 299 298 298 298 297 296 295 295 294 293 293 292 291 291 290 290 290 290 289 289 289 289 289 290 290 291 291 291 291 291 291 291 291 292 292 292 291 291 291 291 291 290 290 290 290 290 290 289 289 289 289 288 288 288 288 288 287 287 287 287 286 286 286 286 286 285 285 285 285 284 284 284 283 283 282 282 281
308 307 307 307 307 307 306 305 304 303 302 300 299 298 297 296 295 294 293 292 292 291 291 291 291 291 291 291 291 290 291 291 291 292 292 292 292 292 292 292 292 292 292 292 292 292 292 292 291 291 291 291 291 291 291 290 290 290 289 289 289 289 289 288 288 288 288 287 287 287 287 287 286 286 286 286 286 286 285 285 284 284 283 283 282 281
312 311 311 310 309 308 307 305 303 302 301 300 298 297 296 295 294 293 293 292 292 292 292 292 292 292 292 293 292 292 292 292 292 292 293 293 293 293 293 293 293 293 293 293 293 293 293 293 292 292 292 292 292 291 291 291 290 290 290 290 289 289 289 289 289 288 288 288 288 288 288 288 288 288 288 287 287 287 286 286 285 284 284 283 282 282
315 314 312 311 309 307 306 304 303 301 300 299 298 297 296 295 294 294 294 293 293 293 293 293 293 293 293 293 293 293 293 293 293 293 293 294 294 294 294 294 294 294 294 294 294 294 294 294 293 293 293 292 292 292 291 291 291 290 290 290 290 290 290 289 289 289 289 289 289 289 289 289 289 289 289 289 289 288 287 287 286 285 284 283 283 282
315 314 312 310 308 307 305 304 302 301 300 298 298 297 296 296 295 295 295 294 294 294 294 294 294 294 294 294 294 294 294 294 294 295 295 295 295 295 295 296 296 295 295 295 295 295 294 294 294 293 293 293 292 292 292 291 291 291 291 291 290 290 290 290 290 289 289 289 290 290 290 290 290 291 290 290 290 289 288 287 286 285 284 283 283 282
313 312 310 308 307 305 304 303 302 300 299 299 298 298 297 297 296 296 296 296 295 295 295 295 295 295 295 296 296 296 296 296 296 296 296 296 296 296 296 297 296 296 296 296 296 295 295 294 294 293 293 293 292 292 292 292 291 291 291 291 290 290 290 290 290 290 290 290 290 291 291 291 292 292 292 291 291 290 289 288 287 286 285 284 283 282
311 309 308 307 306 305 304 303 302 301 300 300 299 299 298 298 297 297 297 297 296 296 296 296 296 296 296 297 297 297 297 297 297 297 297 297 297 297 297 297 297 297 296 296 296 296 295 294 294 293 293 293 292 292 292 292 291 291 291 290 290 290 290 290 290 291 291 291 291 292 292 293 293 293 293 293 292 291 290 288 287 286 285 284 283 282
309 308 307 306 305 304 304 303 303 302 301 301 300 300 299 299 298 298 298 298 298 297 297 297 297 297 298 298 298 298 298 298 299 298 298 298 298 298 298 298 297 297 296 296 296 296 295 294 294 293 293 293 292 292 292 291 291 291 291 290 290 290 291 291 291 291 292 292 293 294 294 295 295 295 295 294 293 292 290 289 287 286 285 284 283 282
308 308 307 306 305 305 304 304 303 302 302 301 301 301 300 300 300 300 300 300 299 299 299 299 299 299 299 299 299 299 299 299 299 299 299 299 299 298 298 298 298 297 297 296 296 295 295 294 294 293 293 292 292 292 291 291 291 291 291 291 291 291 291 292 292 293 293 294 294 295 296 296 297 296 296 295 294 292 290 289 287 286 285 284 282 281
308 308 307 307 306 305 305 304 304 303 303 303 302 302 302 302 302 301 301 301 301 300 300 300 300 300 300 299 299 299 299 299 299 299 299 299 299 298 298 298 298 297 297 297 296 295 295 294 293 293 293 292 292 292 292 291 291 291 291 292 292 292 292 293 293 294 294 295 296 297 297 298 298 298 297 295 294 292 290 288 287 286 284 283 282 280
309 308 308 307 306 306 306 305 305 305 304 304 304 303 303 303 303 302 302 301 301 301 301 301 300 300 300 299 299 299 299 299 299 299 299 299 299 298 298 299 298 297 297 296 296 295 295 294 293 293 293 292 292 292 292 292 292 292 292 293 293 293 294 294 295 295 296 297 297 298 299 299 299 298 297 295 293 291 290 288 286 285 283 282 281 280
309 308 308 307 307 306 306 306 305 305 305 304 304 304 303 303 303 302 302 302 301 301 301 300 300 300 300 299 299 299 299 299 300 300 300 299 299 298 299 299 298 297 297 296 295 295 294 294 293 293 293 293 293 293 293 293 293 293 294 294 294 295 295 296 296 297 297 298 299 300 300 300 300 299 297 295 293 291 289 287 286 284 283 282 282 282
308 308 308 307 307 307 306 306 306 305 305 305 304 304 304 304 303 303 302 302 302 301 301 301 300 300 300 300 300 300 300 300 300 301 301 300 299 299 299 299 298 297 296 295 295 294 293 293 293 293 293 293 293 293 294 294 294 295 295 296 296 296 297 297 298 298 299 300 300 301 301 301 300 298 296 294 292 290 288 286 285 284 283 283 283 284
309 309 309 308 308 308 308 307 307 307 306 306 305 305 305 304 304 303 303 303 302 302 301 301 301 301 301 301 301 301 301 302 302 302 302 301 300 299 299 299 298 297 296 295 294 293 292 292 292 292 293 293 294 294 295 295 296 296 297 297 298 298 298 299 299 300 300 301 302 302 302 301 300 298 296 293 291 289 287 286 285 284 284 284 284 285
311 311 311 310 310 310 310 309 309 308 308 307 307 306 306 305 305 304 304 303 303 303 302 302 302 302 303 303 303 303 303 303 303 304 303 302 301 300 300 299 298 297 296 294 293 291 291 291 291 292 293 293 294 295 296 297 297 298 298 299 299 299 300 300 301 301 302 302 303 303 302 301 299 297 295 292 290 288 287 286 285 285 285 285 285 286
313 313 313 312 312 312 311 311 310 310 309 309 308 307 307 306 305 305 304 304 304 303 303 304 304 304 304 304 304 304 305 305 305 305 305 303 302 302 301 299 298 297 296 295 293 291 290 289 290 291 292 293 294 296 297 298 298 299 300 300 300 301 301 301 302 302 303 303 303 303 302 300 298 296 294 291 289 288 287 286 286 286 286 286 286 286
315 315 314 314 314 313 313 312 311 311 310 310 309 308 307 307 306 305 305 304 304 304 304 305 305 305 305 305 305 305 306 306 306 306 305 304 303 302 301 300 298 297 296 294 293 291 290 288 288 289 290 292 293 295 297 298 299 300 300 301 301 301 301 302 302 303 303 304 303 302 301 299 297 295 292 290 289 288 287 287 286 286 286 287 287 287
316 316 315 315 314 314 313 313 312 311 311 310 309 308 308 307 307 306 306 305 305 305 305 305 306 306 306 306 306 306 306 307 307 307 306 304 303 302 301 299 297 296 295 294 292 291 290 289 288 288 289 290 292 294 296 298 299 300 301 301 301 301 302 302 303 303 304 304 303 301 300 298 296 293 291 290 289 288 287 287 287 287 287 288 288 288
316 316 315 315 314 314 313 313 312 312 311 310 310 309 308 308 307 307 306 306 306 306 306 306 306 307 307 307 307 306 306 307 307 307 306 305 303 302 300 298 297 296 294 293 291 291 290 289 289 289 289 290 292 294 295 297 299 299 300 300 301 301 302 302 303 303 303 303 302 300 298 296 294 292 290 289 288 288 288 287 287 287 288 288 289 289
317 316 316 315 315 314 314 313 312 312 311 310 310 309 308 308 307 307 307 306 306 306 306 307 307 307 307 307 307 307 307 307 307 307 306 305 303 302 300 298 296 295 293 292 291 290 289 289 289 290 290 291 292 293 295 296 297 298 299 300 300 301 301 302 303 303 303 302 300 298 296 294 292 291 290 289 288 288 288 288 288 288 288 289 289 289
317 316 316 315 315 314 314 313 312 312 311 311 310 309 309 308 308 307 307 307 307 306 307 307 307 307 308 308 308 308 307 307 307 306 305 304 303 301 299 297 296 294 292 291 291 290 290 290 290 290 291 292 293 294 295 296 297 297 298 299 299 300 301 302 302 302 302 300 298 296 294 292 291 289 289 289 289 288 288 288 288 288 289 289 289 289
317 316 316 315 315 314 314 313 312 312 311 311 310 310 309 308 308 307 307 307 307 307 307 307 307 308 308 308 308 308 308 307 306 306 305 303 302 300 298 296 295 293 292 291 291 290 290 290 290 291 291 292 293 294 294 295 296 296 297 298 299 300 301 302 302 302 301 299 297 294 292 290 289 289 288 288 288 288 288 288 288 288 288 289 289 288
317 316 316 315 315 314 314 313 313 312 312 311 311 310 309 309 308 308 307 307 307 307 307 308 308 308 308 308 308 308 307 307 306 305 304 302 301 299 297 296 294 293 292 291 291 291 291 291 291 291 292 293 293 294 294 295 295 296 296 297 299 300 301 302 302 301 299 297 295 293 291 289 289 288 288 288 288 288 288 288 288 288 288 288 288 288
317 316 316 315 315 314 314 313 313 313 312 311 311 310 309 309 308 308 307 307 307 307 308 308 308 308 308 308 308 308 307 306 305 304 303 301 300 298 297 295 294 293 292 291 291 291 291 291 292 292 292 293 293 294 294 295 295 296 296 298 299 300 301 301 301 300 298 296 294 292 290 289 289 288 289 289 288 288 287 287 287 287 288 288 287 287
317 317 316 315 315 314 314 314 313 313 312 312 311 310 310 309 308 308 308 308 308 308 308 308 308 309 309 308 308 307 306 305 304 303 302 300 299 298 296 295 294 293 292 292 292 292 292 292 292 293 293 293 293 294 295 295 296 296 297 298 300 301 301 301 300 299 297 294 292 291 290 289 289 289 289 289 289 288 287 287 287 287 287 287 287 286
317 317 316 316 315 315 314 314 314 313 313 312 311 310 310 309 309 308 308 308 308 308 308 308 308 308 308 308 308 307 306 305 303 302 301 300 298 297 296 295 294 293 293 292 292 292 293 293 293 293 293 294 294 295 295 295 296 297 298 299 300 301 302 301 299 297 295 293 291 290 290 290 290 290 290 289 288 288 287 286 286 286 285 285 285 285
318 317 316 316 315 315 314 314 314 313 313 312 311 311 310 309 309 308 308 308 308 308 308 308 308 308 308 307 307 306 305 304 303 301 300 299 298 297 296 295 294 293 293 293 293 293 293 293 293 294 294 294 295 295 296 296 297 298 299 300 301 302 301 300 298 296 293 292 291 290 290 290 290 290 289 289 288 287 286 285 285 284 284 284 284 284
318 317 316 316 315 315 315 314 314 313 313 312 311 311 310 310 309 308 308 308 308 308 308 308 308 308 307 307 306 305 304 303 302 301 299 298 298 297 296 295 294 294 293 293 293 293 294 294 294 294 294 295 295 296 296 297 298 299 300 301 302 302 301 299 296 294 292 291 290 290 290 290 290 289 289 287 286 285 284 283 283 283 283 283 283 283
318 317 317 316 315 315 314 314 314 313 313 312 312 311 310 310 309 309 308 308 308 308 308 308 308 308 307 307 306 305 304 302 301 300 299 298 297 296 296 295 294 294 294 293 293 294 294 294 294 295 295 296 296 297 297 298 299 300 301 302 302 301 300 297 295 292 290 289 289 289 289 289 289 288 287 286 284 283 282 282 281 281 281 282 282 282
318 317 316 316 315 315 315 314 314 313 313 312 312 311 310 310 309 309 308 308 308 308 308 308 308 308 307 306 305 304 303 301 300 299 298 298 297 296 295 295 294 294 294 294 294 294 294 294 295 295 296 296 297 297 298 299 300 301 302 302 302 301 299 296 293 291 289 289 289 289 289 289 288 287 285 284 283 281 281 280 280 280 280 280 281 281
318 317 316 316 315 315 315 314 314 313 313 312 312 311 310 310 309 309 308 308 308 308 308 308 308 307 306 305 304 303 302 300 299 298 297 297 296 295 295 295 294 294 294 294 294 294 295 295 296 296 296 297 297 298 299 300 301 302 303 303 301 299 297 294 292 290 289 289 289 289 289 288 287 286 284 283 281 280 279 279 279 279 279 279 280 280
318 317 316 316 316 315 315 314 314 314 313 312 312 311 310 310 309 309 309 308 308 308 308 308 307 307 306 305 303 302 301 299 298 297 296 296 295 295 294 294 294 294 294 294 295 295 296 296 297 297 297 298 298 299 300 301 302 303 303 302 301 298 295 293 291 290 289 289 289 289 289 288 286 285 283 281 280 279 278 278 278 278 278 278 279 279
318 317 317 316 316 315 315 315 314 314 313 312 312 311 310 310 309 309 309 308 308 308 308 307 307 306 305 304 302 301 300 298 297 296 295 295 294 294 294 294 294 294 294 295 295 296 296 297 297 298 298 299 299 300 301 302 303 304 303 302 299 297 294 292 290 290 290 290 290 290 289 288 286 284 283 281 279 278 277 277 277 277 277 278 278 279
318 317 317 316 316 316 315 315 314 314 313 312 312 311 310 310 309 309 309 309 308 308 307 307 306 305 304 303 302 300 299 298 296 295 294 294 294 294 293 294 294 294 295 295 296 296 297 297 298 298 299 299 300 301 302 303 304 303 302 300 298 295 293 291 290 290 290 290 290 289 288 287 285 284 282 280 279 277 276 275 275 275 276 277 278 278
318 318 317 317 316 316 316 315 315 314 313 313 312 311 311 310 310 309 309 309 308 308 307 306 305 304 303 302 301 300 298 297 296 295 294 294 293 293 293 294 294 294 295 295 296 296 297 298 298 299 299 300 300 302 303 304 304 303 301 298 296 294 292 291 290 290 290 290 289 288 287 285 284 282 281 280 278 277 275 274 274 274 274 275 277 278
Height
5637 5638 5640 5641 5643 5644 5645 5647 5648 5648 5649 5650 5650 5650 5651 5651 5651 5650 5650 5650 5650 5651 5651 5651 5651 5650 5650 5650 5651 5651 5650 5650 5650 5650 5650 5649 5648 5648 5647 5646 5646 5645 5645 5645 5644 5644 5643 5643 5642 5642 5641 5641 5640 5640 5639 5639 5638 5638 5637 5637 5636 5636 5635 5635 5635 5634 5634 5634 5633 5633 5632 5632 5632 5631 5631 5631 5631 5631 5630 5630 5630 5630 5630 5629 5629 5629
5632 5634 5636 5638 5639 5640 5640 5642 5643 5644 5645 5645 5646 5647 5647 5647 5646 5646 5646 5646 5647 5647 5647 5646 5646 5645 5646 5646 5647 5647 5646 5645 5645 5645 5645 5645 5644 5643 5642 5641 5641 5640 5640 5639 5639 5639 5638 5638 5638 5637 5637 5636 5636 5635 5635 5634 5634 5633 5633 5632 5631 5631 5630 5630 5630 5629 5629 5629 5628 5628 5627 5627 5626 5626 5626 5626 5625 5625 5625 5625 5625 5624 5624 5624 5624 5623
5629 5630 5632 5634 5634 5635 5636 5638 5639 5640 5642 5643 5643 5644 5643 5643 5642 5642 5642 5643 5643 5643 5642 5641 5641 5641 5641 5642 5643 5643 5642 5641 5640 5640 5640 5640 5639 5639 5638 5637 5636 5635 5635 5635 5634 5634 5634 5633 5633 5633 5633 5632 5632 5631 5630 5630 5629 5628 5628 5627 5626 5626 5625 5625 5625 5624 5624 5623 5623 5623 5622 5622 5621 5621 5620 5620 5620 5620 5619 5619 5619 5619 5618 5618 5618 5617
5626 5627 5628 5630 5630 5631 5633 5635 5636 5638 5639 5640 5639 5639 5639 5638 5638 5638 5638 5639 5639 5638 5638 5637 5637 5637 5637 5638 5639 5638 5638 5637 5637 5636 5635 5635 5635 5634 5633 5632 5632 5631 5631 5630 5630 5630 5630 5629 5629 5629 5628 5628 5627 5626 5626 5625 5624 5623 5623 5622 5621 5621 5620 5620 5619 5619 5618 5618 5618 5617 5617 5616 5616 5615 5615 5615 5614 5614 5614 5613 5613 5613 5612 5612 5612 5611
5623 5625 5625 5626 5627 5628 5630 5632 5634 5634 5635 5635 5635 5635 5635 5635 5634 5634 5634 5634 5634 5634 5634 5634 5633 5633 5634 5634 5635 5634 5634 5634 5633 5632 5631 5631 5630 5629 5629 5628 5628 5627 5627 5627 5626 5626 5625 5625 5624 5624 5623 5623 5622 5621 5620 5620 5619 5618 5617 5617 5616 5616 5615 5615 5614 5614 5613 5613 5612 5612 5611 5611 5610 5610 5610 5609 5609 5608 5608 5607 5607 5607 5606 5606 5606 5605
5621 5622 5623 5624 5625 5627 5629 5630 5630 5630 5630 5631 5631 5632 5632 5631 5631 5630 5630 5630 5630 5630 5630 5630 5630 5630 5630 5630 5630 5630 5630 5630 5629 5629 5628 5627 5626 5625 5625 5624 5624 5623 5623 5623 5622 5621 5621 5620 5620 5619 5618 5617 5617 5616 5615 5615 5614 5613 5612 5612 5611 5610 5610 5610 5609 5608 5608 5607 5607 5606 5606 5605 5605 5604 5604 5603 5603 5602 5602 5601 5601 5601 5600 5600 5599 5599
5619 5621 5622 5623 5625 5627 5628 5628 5627 5627 5628 5628 5628 5628 5628 5628 5628 5627 5627 5627 5627 5627 5627 5627 5627 5627 5627 5627 5627 5627 5626 5626 5625 5625 5624 5623 5622 5621 5621 5620 5620 5620 5619 5618 5618 5617 5616 5615 5615 5614 5613 5612 5612 5611 5610 5610 5609 5608 5607 5607 5606 5605 5605 5604 5604 5603 5602 5602 5601 5600 5600 5599 5599 5598 5598 5597 5597 5596 5596 5595 5595 5595 5594 5593 5593 5592
5618 5620 5622 5624 5625 5626 5626 5625 5625 5625 5625 5625 5625 5625 5626 5626 5626 5625 5625 5625 5625 5625 5625 5624 5624 5625 5624 5624 5623 5623 5622 5622 5621 5620 5620 5619 5619 5618 5617 5616 5616 5615 5615 5614 5613 5612 5612 5611 5610 5609 5609 5608 5607 5606 5605 5605 5604 5603 5602 5601 5601 5600 5599 5599 5598 5597 5597 5596 5595 5595 5594 5593 5593 5592 5591 5591 5590 5590 5590 5589 5588 5588 5587 5587 5586 5585
5618 5620 5621 5623 5624 5624 5623 5623 5623 5623 5623 5623 5623 5623 5624 5624 5624 5623 5623 5623 5623 5622 5622 5622 5621 5621 5620 5620 5620 5619 5619 5618 5617 5617 5616 5615 5615 5614 5613 5612 5612 5611 5610 5610 5609 5608 5607 5606 5606 5605 5604 5603 5602 5601 5600 5600 5599 5598 5597 5596 5595 5595 5594 5593 5592 5591 5591 5590 5589 5589 5588 5587 5586 5586 5585 5585 5584 5583 5583 5582 5581 5581 5580 5580 5579 5578
5618 5619 5620 5621 5622 5622 5621 5621 5621 5621 5621 5620 5620 5620 5621 5621 5621 5621 5620 5620 5620 5619 5619 5618 5618 5617 5617 5616 5616 5615 5615 5614 5614 5613 5612 5611 5610 5610 5609 5608 5607 5607 5606 5605 5605 5604 5603 5602 5601 5600 5599 5598 5597 5596 5595 5595 5594 5593 5592 5591 5590 5589 5588 5587 5586 5586 5585 5584 5583 5583 5582 5581 5580 5580 5579 5578 5577 5577 5576 5575 5575 5574 5573 5572 5572 5571
5619 5619 5620 5620 5620 5620 5620 5619 5619 5619 5618 5618 5618 5618 5618 5618 5618 5617 5617 5617 5616 5616 5615 5615 5614 5614 5613 5613 5612 5612 5611 5610 5609 5609 5608 5607 5606 5605 5605 5604 5603 5602 5602 5601 5600 5599 5598 5597 5596 5595 5595 5593 5592 5591 5590 5589 5588 5587 5586 5585 5584 5584 5583 5582 5581 5580 5579 5578 5577 5577 5576 5575 5574 5573 5572 5571 5571 5570 5569 5568 5567 5566 5565 5565 5564 5563
5619 5619 5619 5619 5619 5618 5618 5617 5617 5616 5616 5616 5615 5615 5615 5615 5615 5614 5614 5613 5613 5613 5612 5611 5611 5610 5610 5609 5609 5608 5608 5606 5605 5604 5604 5603 5602 5601 5600 5600 5599 5598 5598 5597 5596 5595 5594 5593 5591 5590 5589 5588 5587 5586 5585 5584 5583 5582 5581 5580 5579 5578 5577 5576 5575 5575 5574 5573 5572 5571 5570 5569 5568 5567 5566 5565 5564 5563 5562 5561 5560 5559 5559 5558 5557 5556
5617 5617 5617 5616 5616 5616 5615 5615 5614 5614 5614 5613 5613 5612 5612 5612 5612 5611 5611 5610 5610 5610 5609 5609 5608 5607 5607 5606 5605 5605 5604 5603 5601 5600 5600 5599 5598 5598 5596 5595 5595 5594 5593 5592 5591 5590 5589 5587 5586 5585 5584 5583 5582 5581 5580 5579 5578 5577 5576 5575 5574 5573 5572 5571 5570 5569 5568 5567 5566 5565 5564 5563 5562 5561 5560 5559 5558 5557 5556 5555 5554 5553 5552 5550 5550 5549
5615 5615 5615 5614 5614 5613 5613 5613 5612 5612 5611 5611 5611 5610 5610 5610 5609 5609 5608 5608 5607 5607 5606 5605 5605 5604 5603 5603 5602 5601 5600 5599 5598 5597 5596 5595 5595 5594 5592 5591 5590 5589 5589 5587 5586 5585 5584 5582 5581 5580 5579 5578 5577 5576 5575 5574 5573 5572 5570 5570 5568 5567 5566 5565 5564 5563 5562 5561 5560 5559 5558 5557 5556 5555 5554 5553 5551 5550 5549 5548 5547 5546 5545 5544 5543 5541
5614 5613 5613 5612 5612 5612 5611 5611 5610 5610 5610 5610 5609 5608 5608 5607 5606 5606 5605 5605 5604 5604 5603 5603 5602 5601 5600 5600 5599 5598 5596 5595 5594 5593 5593 5592 5590 5589 5588 5586 5585 5584 5584 5582 5581 5579 5578 5577 5576 5575 5574 5573 5572 5571 5570 5569 5568 5566 5565 5564 5563 5562 5561 5560 5559 5558 5557 5555 5554 5553 5552 5551 5550 5549 5547 5546 5545 5544 5543 5542 5540 5539 5538 5537 5536 5535
5613 5612 5612 5611 5611 5610 5610 5610 5609 5608 5608 5607 5606 5606 5605 5605 5604 5603 5603 5602 5601 5601 5600 5599 5598 5598 5597 5597 5596 5595 5593 5591 5590 5589 5589 5587 5586 5585 5584 5582 5580 5579 5579 5578 5576 5575 5573 5572 5571 5570 5569 5568 5567 5566 5565 5564 5562 5561 5560 5559 5558 5557 5555 5554 5553 5552 5551 5550 5549 5547 5546 5545 5544 5542 5541 5540 5539 5538 5536 5535 5534 5533 5531 5530 5529 5528
5611 5610 5610 5609 5609 5608 5608 5607 5606 5606 5605 5605 5604 5603 5603 5602 5601 5600 5600 5599 5598 5598 5597 5596 5595 5594 5593 5593 5592 5590 5589 5586 5585 5585 5585 5583 5581 5580 5579 5577 5576 5575 5574 5573 5571 5570 5569 5567 5566 5565 5564 5563 5562 5561 5560 5558 5557 5556 5555 5553 5552 5551 5550 5549 5548 5546 5545 5544 5543 5541 5540 5539 5538 5536 5535 5534 5533 5531 5530 5529 5528 5526 5525 5524 5522 5521
5609 5608 5607 5607 5606 5605 5605 5605 5604 5603 5603 5602 5601 5601 5600 5599 5598 5598 5597 5596 5595 5594 5594 5593 5592 5590 5590 5589 5588 5586 5585 5583 5581 5580 5580 5579 5577 5575 5574 5573 5571 5570 5569 5568 5567 5565 5564 5562 5561 5560 5559 5558 5557 5555 5554 5553 5552 5550 5549 5548 5547 5545 5544 5543 5542 5540 5539 5538 5537 5535 5534 5533 5532 5530 5529 5528 5527 5525 5524 5523 5521 5520 5519 5517 5516 5515
5607 5606 5605 5605 5604 5604 5603 5602 5602 5601 5600 5600 5599 5598 5597 5596 5595 5595 5594 5593 5592 5591 5590 5589 5588 5587 5586 5585 5584 5582 5581 5579 5577 5576 5576 5575 5573 5572 5570 5569 5567 5565 5565 5563 5562 5560 5559 5557 5556 5555 5554 5553 5551 5550 5549 5548 5546 5545 5544 5542 5541 5540 5539 5537 5536 5535 5534 5532 5531 5530 5528 5527 5526 5525 5523 5522 5520 5519 5518 5516 5515 5514 5512 5511 5510 5509
5605 5604 5603 5603 5602 5601 5601 5600 5599 5598 5598 5597 5596 5595 5595 5594 5593 5592 5591 5590 5589 5588 5587 5585 5584 5583 5583 5581 5580 5578 5577 5575 5574 5572 5572 5571 5569 5567 5566 5564 5562 5561 5560 5558 5557 5555 5554 5552 5551 5550 5549 5547 5546 5545 5544 5542 5541 5540 5538 5537 5535 5534 5533 5531 5530 5529 5528 5526 5525 5524 5523 5521 5520 5519 5517 5516 5515 5513 5512 5510 5509 5508 5506 5505 5504 5503
5603 5603 5602 5601 5600 5600 5599 5598 5597 5596 5595 5594 5594 5593 5592 5591 5590 5589 5588 5587 5586 5585 5584 5582 5581 5580 5579 5578 5576 5574 5573 5571 5570 5568 5567 5566 5565 5563 5562 5560 5558 5556 5555 5553 5552 5550 5549 5547 5545 5544 5543 5542 5541 5540 5538 5537 5535 5534 5532 5531 5530 5529 5527 5526 5525 5523 5522 5521 5520 5518 5517 5516 5515 5513 5512 5510 5509 5507 5506 5505 5503 5502 5500 5499 5498 5497
5602 5601 5600 5599 5598 5598 5597 5596 5595 5594 5593 5592 5591 5590 5589 5588 5587 5586 5585 5584 5582 5581 5580 5579 5577 5576 5575 5574 5572 5570 5569 5567 5565 5564 5563 5561 5560 5559 5558 5555 5553 5551 5550 5548 5547 5545 5544 5542 5540 5539 5538 5537 5535 5534 5533 5531 5530 5528 5527 5526 5525 5523 5522 5521 5520 5518 5517 5515 5514 5513 5512 5510 5509 5508 5506 5505 5503 5502 5500 5499 5497 5496 5495 5493 5492 5491
5600 5600 5599 5597 5596 5595 5595 5593 5592 5591 5590 5589 5588 5587 5586 5585 5584 5583 5581 5580 5579 5578 5576 5575 5574 5572 5571 5570 5568 5566 5565 5563 5561 5560 5558 5556 5555 5555 5554 5552 5549 5547 5545 5544 5542 5540 5539 5537 5535 5534 5533 5531 5530 5529 5527 5526 5525 5523 5522 5520 5519 5518 5517 5516 5515 5513 5512 5510 5509 5508 5507 5505 5504 5502 5501 5499 5498 5496 5494 5493 5491 5490 5489 5488 5487 5486
5599 5598 5597 5595 5595 5593 5592 5591 5590 5589 5587 5586 5585 5584 5583 5581 5580 5579 5578 5576 5575 5574 5572 5571 5570 5569 5567 5566 5565 5562 5560 5559 5557 5555 5553 5552 5550 5550 5549 5548 5545 5543 5540 5539 5538 5536 5533 5531 5530 5529 5527 5526 5525 5523 5522 5520 5519 5518 5517 5516 5515 5513 5512 5511 5510 5508 5507 5505 5504 5503 5501 5500 5499 5497 5495 5493 5492 5490 5489 5487 5486 5485 5484 5483 5482 5481
5597 5596 5595 5594 5592 5591 5590 5589 5587 5586 5585 5583 5582 5580 5579 5578 5576 5575 5574 5572 5571 5570 5568 5567 5566 5565 5564 5562 5561 5559 5557 5555 5553 5551 5550 5547 5546 5545 5544 5543 5541 5539 5536 5534 5533 5531 5529 5526 5524 5523 5522 5520 5519 5518 5517 5515 5514 5513 5512 5511 5510 5509 5507 5506 5505 5503 5502 5501 5499 5498 5496 5495 5493 5491 5490 5488 5486 5485 5483 5482 5480 5480 5479 5478 5477 5477
5595 5594 5593 5591 5590 5589 5587 5586 5585 5583 5582 5580 5579 5577 5576 5574 5573 5571 5570 5569 5567 5566 5564 5563 5561 5560 5560 5559 5557 5556 5554 5552 5550 5548 5546 5544 5541 5540 5539 5539 5537 5535 5531 5529 5527 5526 5524 5521 5519 5517 5516 5515 5514 5513 5511 5510 5509 5508 5507 5506 5505 5504 5503 5501 5500 5499 5497 5496 5494 5493 5491 5490 5488 5486 5484 5482 5480 5479 5478 5477 5476 5475 5474 5474 5473 5473
5593 5591 5590 5589 5587 5586 5585 5583 5582 5580 5579 5577 5575 5574 5572 5571 5570 5568 5567 5565 5564 5562 5560 5559 5558 5556 5555 5555 5553 5552 5551 5549 5547 5545 5543 5540 5538 5535 5534 5534 5532 5530 5527 5525 5522 5520 5519 5516 5514 5512 5511 5509 5508 5507 5506 5505 5504 5503 5502 5501 5500 5499 5498 5496 5495 5494 5492 5491 5489 5488 5486 5484 5482 5480 5479 5477 5475 5474 5473 5472 5471 5470 5470 5469 5469 5469
5590 5589 5588 5586 5585 5583 5582 5580 5579 5577 5575 5574 5572 5570 5569 5568 5566 5565 5563 5562 5560 5559 5557 5555 5554 5553 5551 5550 5550 5549 5548 5546 5544 5541 5539 5537 5534 5532 5530 5529 5528 5526 5524 5521 5519 5516 5514 5512 5510 5507 5506 5504 5503 5502 5501 5500 5500 5498 5497 5496 5495 5494 5493 5492 5490 5489 5487 5486 5484 5482 5480 5479 5477 5475 5473 5472 5470 5469 5468 5467 5467 5466 5466 5465 5465 5464
5588 5587 5585 5584 5582 5580 5579 5577 5576 5574 5573 5571 5569 5567 5565 5564 5563 5561 5560 5558 5557 5555 5553 5552 5550 5549 5548 5546 5545 5545 5544 5542 5540 5538 5535 5533 5530 5528 5527 5525 5523 5522 5520 5518 5515 5513 5511 5508 5506 5504 5502 5500 5499 5498 5496 5495 5495 5494 5493 5491 5490 5489 5488 5486 5485 5484 5482 5480 5479 5477 5475 5474 5472 5470 5468 5467 5466 5465 5464 5463 5463 5462 5462 5461 5461 5460
5585 5584 5582 5580 5579 5577 5575 5574 5572 5571 5569 5568 5566 5564 5562 5560 5559 5558 5556 5554 5553 5551 5550 5548 5546 5545 5544 5542 5540 5540 5539 5538 5536 5534 5531 5529 5526 5524 5523 5520 5519 5517 5516 5515 5513 5510 5508 5505 5503 5501 5499 5496 5495 5493 5492 5491 5490 5489 5488 5486 5485 5484 5482 5481 5480 5478 5477 5475 5474 5472 5470 5468 5466 5465 5464 5462 5461 5460 5460 5459 5459 5458 5458 5457 5457 5456
5582 5581 5579 5577 5575 5574 5572 5570 5569 5567 5565 5564 5562 5560 5559 5557 5555 5554 5552 5550 5549 5548 5546 5544 5542 5541 5539 5538 5536 5534 5533 5533 5532 5530 5527 5524 5522 5520 5518 5516 5514 5512 5512 5511 5510 5508 5506 5503 5501 5498 5496 5493 5491 5489 5487 5486 5485 5484 5483 5481 5480 5478 5477 5476 5475 5473 5472 5470 5468 5466 5465 5463 5461 5460 5459 5458 5457 5456 5455 5455 5455 5454 5453 5453 5452 5452
5579 5577 5576 5574 5572 5570 5569 5567 5565 5564 5562 5560 5559 5557 5555 5554 5552 5550 5549 5547 5545 5544 5542 5540 5538 5537 5535 5533 5531 5529 5528 5527 5526 5525 5522 5520 5517 5515 5513 5511 5509 5507 5506 5506 5505 5504 5503 5501 5499 5497 5494 5491 5488 5485 5483 5482 5480 5479 5478 5476 5475 5473 5472 5471 5470 5468 5466 5465 5463 5461 5460 5458 5457 5455 5455 5454 5453 5452 5451 5451 5450 5450 5449 5449 5448 5448
5576 5574 5572 5570 5569 5567 5565 5564 5562 5560 5559 5557 5555 5553 5552 5550 5548 5547 5545 5543 5541 5540 5538 5536 5534 5532 5530 5528 5526 5525 5523 5522 5520 5519 5517 5515 5512 5510 5508 5507 5505 5503 5501 5501 5500 5500 5499 5498 5497 5495 5492 5490 5487 5483 5480 5478 5476 5475 5474 5472 5470 5468 5467 5466 5465 5463 5462 5460 5458 5456 5455 5453 5452 5451 5450 5449 5449 5448 5447 5447 5446 5445 5445 5444 5444 5443
5573 5571 5569 5567 5565 5564 5562 5560 5559 5557 5555 5554 5552 5550 5548 5546 5545 5543 5541 5539 5537 5535 5534 5532 5530 5528 5526 5524 5521 5520 5518 5517 5515 5514 5512 5510 5508 5505 5504 5502 5500 5499 5497 5496 5495 5495 5494 5494 5493 5492 5490 5488 5485 5482 5478 5475 5473 5471 5470 5468 5466 5464 5462 5461 5460 5458 5457 5455 5454 5452 5450 5449 5448 5447 5446 5445 5445 5444 5444 5443 5442 5441 5440 5440 5439 5439
5570 5568 5566 5564 5562 5561 5559 5557 5555 5554 5552 5550 5548 5547 5545 5543 5541 5539 5537 5535 5534 5531 5530 5528 5526 5524 5521 5519 5517 5515 5513 5512 5510 5509 5507 5505 5503 5501 5499 5498 5496 5495 5493 5492 5491 5490 5489 5489 5488 5487 5486 5484 5482 5480 5476 5474 5471 5468 5466 5464 5462 5460 5458 5457 5455 5454 5452 5451 5449 5447 5446 5445 5444 5443 5442 5441 5441 5440 5440 5439 5438 5437 5436 5435 5435 5435
5567 5565 5563 5561 5560 5558 5556 5554 5552 5550 5549 5547 5545 5543 5541 5540 5538 5535 5534 5532 5530 5528 5525 5524 5521 5519 5517 5515 5513 5510 5508 5506 5505 5504 5502 5500 5499 5497 5495 5493 5492 5490 5489 5488 5487 5486 5485 5484 5483 5483 5482 5480 5478 5476 5474 5471 5468 5466 5463 5460 5459 5456 5455 5453 5451 5450 5448 5447 5445 5443 5442 5440 5440 5439 5438 5437 5437 5436 5435 5435 5434 5433 5432 5431 5431 5430
5565 5563 5560 5559 5557 5555 5553 5551 5549 5547 5545 5544 5542 5540 5538 5536 5534 5532 5530 5528 5526 5524 5522 5520 5517 5515 5513 5511 5509 5506 5504 5502 5500 5498 5497 5495 5494 5492 5490 5489 5487 5486 5485 5483 5482 5481 5481 5480 5479 5478 5477 5475 5474 5472 5470 5468 5465 5463 5460 5458 5455 5453 5451 5449 5447 5446 5444 5443 5441 5440 5438 5437 5436 5435 5435 5434 5433 5433 5432 5431 5430 5429 5428 5428 5427 5427
5562 5560 5558 5556 5554 5552 5550 5548 5546 5544 5542 5540 5538 5536 5535 5532 5530 5529 5526 5524 5522 5520 5518 5515 5513 5511 5509 5507 5504 5502 5500 5497 5495 5494 5492 5490 5489 5488 5486 5484 5482 5481 5480 5479 5478 5477 5476 5475 5474 5473 5472 5471 5470 5468 5466 5465 5462 5460 5457 5455 5452 5450 5447 5445 5444 5442 5440 5439 5437 5436 5435 5433 5432 5432 5431 5430 5430 5429 5428 5427 5426 5425 5425 5424 5423 5423
5559 5557 5555 5553 5551 5549 5547 5545 5543 5541 5539 5537 5535 5533 5531 5529 5527 5525 5523 5520 5518 5516 5514 5511 5509 5507 5505 5502 5500 5498 5495 5493 5491 5489 5487 5485 5484 5483 5481 5480 5478 5477 5475 5475 5474 5473 5472 5471 5470 5469 5468 5466 5465 5464 5462 5460 5458 5456 5454 5452 5449 5447 5444 5442 5440 5438 5436 5435 5433 5432 5431 5430 5429 5428 5428 5427 5426 5425 5425 5424 5423 5422 5421 5420 5420 5419
5556 5554 5552 5550 5547 5545 5543 5541 5539 5537 5535 5533 5531 5529 5527 5525 5523 5521 5519 5517 5515 5512 5510 5507 5505 5502 5500 5498 5495 5493 5491 5489 5487 5485 5483 5481 5479 5478 5477 5475 5474 5472 5471 5470 5469 5468 5467 5466 5465 5464 5463 5462 5461 5460 5458 5456 5454 5452 5450 5448 5446 5444 5441 5438 5436 5434 5432 5430 5429 5428 5427 5426 5426 5425 5425 5424 5423 5422 5421 5420 5419 5418 5417 5417 5416 5416
5553 5551 5549 5546 5544 5542 5540 5538 5536 5534 5532 5530 5527 5525 5523 5521 5519 5517 5515 5513 5510 5508 5506 5503 5500 5498 5495 5493 5491 5489 5487 5484 5482 5480 5478 5476 5475 5473 5472 5471 5470 5468 5467 5466 5465 5464 5463 5462 5461 5460 5459 5458 5456 5455 5454 5452 5450 5447 5446 5444 5442 5440 5438 5435 5432 5430 5428 5427 5426 5425 5424 5423 5423 5422 5421 5421 5420 5419 5418 5417 5416 5415 5414 5413 5413 5412
5550 5548 5545 5543 5541 5539 5536 5534 5532 5530 5528 5526 5524 5522 5520 5518 5515 5513 5511 5509 5506 5504 5502 5499 5497 5494 5491 5489 5486 5485 5482 5480 5478 5475 5474 5472 5470 5469 5467 5466 5465 5464 5463 5462 5460 5460 5459 5458 5456 5455 5454 5453 5452 5450 5449 5447 5445 5443 5441 5440 5438 5436 5434 5431 5429 5426 5425 5423 5422 5421 5420 5420 5419 5419 5418 5418 5417 5416 5415 5414 5413 5412 5411 5410 5410 5409
5547 5545 5542 5540 5537 5535 5533 5531 5529 5526 5525 5522 5520 5518 5516 5514 5511 5509 5507 5505 5502 5500 5498 5495 5493 5490 5487 5484 5482 5480 5477 5475 5473 5471 5469 5467 5466 5464 5463 5462 5460 5460 5459 5458 5457 5455 5454 5454 5452 5451 5450 5449 5448 5446 5445 5443 5441 5439 5437 5435 5434 5432 5430 5427 5425 5423 5421 5420 5419 5418 5417 5417 5416 5416 5415 5415 5414 5413 5411 5410 5410 5409 5408 5407 5406 5406
5543 5541 5539 5536 5534 5532 5530 5527 5525 5523 5521 5519 5517 5514 5512 5510 5507 5505 5503 5500 5498 5496 5493 5491 5488 5486 5483 5480 5478 5475 5472 5470 5468 5466 5465 5463 5461 5460 5459 5457 5456 5455 5454 5454 5453 5451 5450 5449 5448 5447 5445 5444 5443 5442 5440 5439 5437 5435 5433 5431 5430 5428 5426 5424 5422 5420 5418 5417 5416 5415 5414 5413 5413 5413 5412 5411 5410 5410 5409 5408 5406 5405 5405 5404 5403 5403
5540 5538 5535 5533 5531 5529 5526 5524 5522 5520 5517 5515 5513 5510 5508 5506 5503 5501 5499 5496 5494 5491 5489 5487 5484 5481 5478 5475 5473 5470 5468 5465 5463 5461 5460 5458 5457 5455 5454 5453 5452 5451 5450 5449 5448 5447 5446 5445 5444 5443 5441 5440 5439 5437 5436 5434 5433 5431 5430 5427 5425 5423 5421 5420 5418 5416 5415 5414 5413 5412 5411 5410 5410 5410 5409 5409 5408 5407 5406 5405 5404 5403 5401 5401 5400 5400
5537 5535 5532 5530 5528 5525 5523 5521 5518 5516 5514 5511 5509 5507 5504 5502 5499 5497 5495 5492 5490 5487 5484 5482 5480 5477 5474 5471 5469 5466 5463 5460 5458 5456 5455 5453 5452 5451 5450 5449 5448 5447 5446 5445 5444 5443 5442 5441 5440 5439 5437 5436 5435 5433 5432 5430 5429 5427 5425 5424 5421 5419 5417 5415 5414 5413 5412 5411 5410 5409 5408 5407 5407 5406 5406 5406 5405 5404 5403 5402 5400 5400 5399 5398 5397 5397
5533 5531 5529 5526 5524 5522 5519 5517 5515 5512 5510 5508 5505 5503 5500 5498 5495 5493 5490 5488 5485 5483 5480 5478 5475 5473 5470 5467 5465 5462 5459 5457 5454 5452 5450 5448 5447 5446 5445 5444 5443 5443 5442 5441 5440 5439 5438 5437 5435 5434 5433 5432 5430 5429 5428 5426 5425 5423 5421 5419 5417 5415 5414 5412 5410 5409 5408 5408 5407 5406 5405 5405 5404 5403 5403 5403 5402 5401 5400 5399 5398 5396 5395 5395 5394 5394
5530 5528 5525 5523 5520 5518 5516 5513 5511 5509 5506 5504 5501 5499 5496 5494 5491 5489 5486 5483 5481 5479 5476 5473 5470 5468 5465 5462 5460 5458 5455 5453 5451 5449 5446 5445 5443 5442 5441 5440 5439 5438 5437 5437 5436 5435 5434 5433 5431 5430 5429 5428 5426 5425 5424 5422 5420 5418 5416 5415 5413 5411 5410 5408 5407 5406 5405 5404 5404 5403 5402 5401 5400 5400 5400 5399 5399 5398 5398 5396 5395 5393 5392 5392 5391 5391
5526 5524 5521 5519 5517 5514 5512 5510 5507 5505 5502 5500 5497 5494 5491 5489 5487 5484 5481 5479 5476 5474 5471 5469 5466 5463 5460 5458 5455 5453 5451 5449 5447 5445 5443 5441 5440 5438 5437 5436 5435 5434 5433 5433 5432 5431 5430 5429 5428 5426 5425 5423 5422 5420 5420 5418 5416 5414 5412 5410 5408 5407 5406 5405 5404 5403 5402 5401 5400 5400 5399 5398 5397 5396 5396 5396 5395 5395 5395 5394 5392 5391 5389 5389 5388 5388
5523 5520 5518 5515 5513 5510 5508 5505 5503 5500 5498 5495 5493 5490 5487 5484 5482 5480 5477 5474 5471 5469 5466 5464 5461 5458 5455 5453 5451 5449 5447 5445 5443 5441 5440 5438 5436 5435 5434 5432 5431 5431 5430 5429 5428 5427 5426 5425 5424 5422 5421 5419 5417 5416 5415 5414 5412 5410 5408 5406 5404 5403 5402 5401 5401 5400 5399 5398 5397 5396 5395 5394 5394 5393 5392 5392 5392 5392 5392 5391 5390 5388 5386 5385 5385 5385
5519 5516 5514 5511 5509 5506 5504 5501 5499 5496 5494 5491 5488 5485 5483 5480 5477 5474 5472 5469 5466 5464 5461 5459 5456 5454 5451 5449 5446 5445 5443 5441 5439 5437 5436 5434 5433 5431 5430 5429 5428 5427 5426 5425 5425 5424 5423 5422 5421 5419 5417 5415 5413 5412 5411 5409 5408 5406 5404 5402 5401 5400 5399 5398 5397 5397 5396 5395 5394 5393 5392 5391 5390 5390 5389 5389 5389 5389 5389 5388 5387 5386 5384 5383 5382 5382